Погода в Рино

США     39°31′47″N   119°48′48″W
темп.,
°C
ветер,
м/с
пор.,
м/с
влажн.,
%
обл.,
%
осадки,
мм/ч
давл.,
гПа
погр.,
м
21 октября, чт
чт2123:00+10юз225794 0.0 101974
02:00+11ююз36685 0.2 1019292
05:00+11ююз23714 0.3 1019112
08:00+11ю2373100 0.0 101991
11:00+16ююз495189 0.0 10181641
14:00+17ююз4951100 0.0 10171646
17:00+16юз395119 0.1 10151480
20:00+14юз2365100 0.1 1016138
22 октября, пт
пт2223:00+12юз227496 0.1 101548
02:00+11ююз3373100 0.0 101361
05:00+10ю477082 0.0 1010244
08:00+10ю4146452 0.1 10101178
11:00+8юз4777100 6.5 1012911
14:00+8ююз4115927 1.2 10121227
17:00+10зюз51049100 1.3 10111383
20:00+7з3461100 0.0 1012357
23 октября, сб
сб2323:00+7зсз2365100 0.0 1011376
02:00+7зсз2466100 0.0 1011572
05:00+6з1265100 0.0 1010151
08:00+6зсз2260100 0.0 1011224
11:00+9з244298 0.0 10101124
14:00+11зюз5743100 0.0 10081462
17:00+9зюз475299 0.0 1008971
20:00+6зюз2373100 0.0 1010255
24 октября, вс
вс2423:00+6ююз2370100 0.0 1010310
02:00+7ю2468100 0.0 1008450
05:00+6ююв3781100 0.2 1005889
08:00+6ююв3779100 0.6 1003520
11:00+9ю61975100 3.8 9981540
14:00+10ююз71978100 17.3 9941723
17:00+8ююз51282100 33.5 995991
20:00+4ю61390100 19.4 998621
25 октября, пн
пн2523:00+3ююв2597100 31.6 1000377
02:00+3ююз1697100 5.8 1001360
05:00+3ююз129090 6.7 999254
08:00+2зсз1392100 6.4 1003268
11:00+4зюз5136516 7.6 10061464
14:00+5юз5126235 0.0 10071512
17:00+4юз5126938 0.2 10091318
20:00+2зюз259181 1.3 1013476